(83) Beatrix
ephemeris date magn radius delta ra dec elong phase
Today27 Jul 202614.12.626 AU2.780 AU03h21m+18°48'70.7°21.4°
Opposition19 Nov 202612.02.579 AU1.592 AU03h38m+23°36'175.8°1.6°
(83) Beatrix - 2026-07-27
astro.vanbuitenen.nl


 
-1 year
-1 month
-1 day
Now
+1 day
+1 month
+1 year

The interactive orbit chart above shows the body's path through the solar system and its position at the given date. Green and blue lines are shown perpendicular to the ecliptic plane: Green if the path is above the ecliptic plane, blue if it is below. (Left-click and drag to rotate the view; Right-click and drag to move the view; Use scroll wheel to zoom in our out.)

The orbital elements of Beatrix are:

            e (Eccentricity)                : 0.0832007
            a (Semimajor axis)              : 2.4312244
            i (Inclination)                 : 4.96710
            Ω (Longitude of ascending node) : 27.65449
            ω (Argument of perihelion)      : 169.86426
            M (Mean anomaly)                : 183.98683
            Epoch                           : 2026 Jun 09

            L (Longitude of perihelion)     : 17.55603
            B (Latitude of perihelion)      : 0.87305
            P (Orbital period in years)     : 3.79            
        

The light curve chart below shows the estimated development of the minor planet's magnitude.


The all-sky chart below shows the path of the minor planet over the same period as the light curve. The current position is marked yellow.





The following chart shows the path of the minor planet in the next few days. The field of view is optimized for (~10x50) binoculars and finderscopes.




Ephemerides:
Date       Time       RA (2000)    DEC (2000)    delta   radius  elong  phase   PA    magn
2026-07-27 00:00 UT   03 21 44.4   +18 48 25     2.780    2.626   70.7   21.4   255   14.1 
2026-07-27 15:53 UT   03 22 33.7   +18 52 16     2.772    2.626   71.2   21.5   256   14.1 
2026-07-28 00:00 UT   03 22 58.8   +18 54 14     2.768    2.626   71.4   21.5   256   14.1 
2026-07-29 00:00 UT   03 24 12.6   +18 59 59     2.755    2.626   72.0   21.6   256   14.1 
2026-07-30 00:00 UT   03 25 25.9   +19 05 41     2.743    2.626   72.7   21.7   256   14.1 
2026-07-31 00:00 UT   03 26 38.6   +19 11 19     2.730    2.625   73.3   21.7   256   14.1 
2026-08-01 00:00 UT   03 27 50.7   +19 16 54     2.717    2.625   74.0   21.8   256   14.0 
2026-08-02 00:00 UT   03 29 02.3   +19 22 25     2.704    2.625   74.6   21.9   256   14.0 
2026-08-03 00:00 UT   03 30 13.2   +19 27 53     2.692    2.625   75.3   22.0   256   14.0 
2026-08-04 00:00 UT   03 31 23.5   +19 33 18     2.679    2.625   76.0   22.0   256   14.0 
2026-08-05 00:00 UT   03 32 33.2   +19 38 39     2.666    2.624   76.6   22.1   256   14.0 
2026-08-06 00:00 UT   03 33 42.3   +19 43 57     2.653    2.624   77.3   22.2   256   14.0 
2026-08-07 00:00 UT   03 34 50.7   +19 49 12     2.640    2.624   78.0   22.2   257   14.0 
2026-08-08 00:00 UT   03 35 58.4   +19 54 23     2.627    2.623   78.7   22.3   257   14.0 
2026-08-09 00:00 UT   03 37 05.4   +19 59 31     2.614    2.623   79.4   22.3   257   14.0 
2026-08-10 00:00 UT   03 38 11.7   +20 04 35     2.601    2.623   80.1   22.4   257   14.0 
2026-08-11 00:00 UT   03 39 17.2   +20 09 36     2.587    2.623   80.7   22.4   257   14.0 
2026-08-12 00:00 UT   03 40 22.0   +20 14 34     2.574    2.622   81.4   22.5   257   13.9 
2026-08-13 00:00 UT   03 41 26.1   +20 19 28     2.561    2.622   82.1   22.5   257   13.9 
2026-08-14 00:00 UT   03 42 29.3   +20 24 20     2.548    2.622   82.8   22.5   257   13.9 
2026-08-15 00:00 UT   03 43 31.7   +20 29 07     2.535    2.622   83.5   22.6   257   13.9 
2026-08-16 00:00 UT   03 44 33.3   +20 33 52     2.521    2.621   84.2   22.6   257   13.9 
2026-08-17 00:00 UT   03 45 34.1   +20 38 33     2.508    2.621   85.0   22.6   257   13.9 
2026-08-18 00:00 UT   03 46 34.1   +20 43 11     2.495    2.621   85.7   22.7   257   13.9 
2026-08-19 00:00 UT   03 47 33.1   +20 47 46     2.481    2.620   86.4   22.7   258   13.9 
2026-08-20 00:00 UT   03 48 31.3   +20 52 18     2.468    2.620   87.1   22.7   258   13.9 
2026-08-21 00:00 UT   03 49 28.6   +20 56 46     2.455    2.620   87.9   22.7   258   13.8 
2026-08-22 00:00 UT   03 50 24.9   +21 01 11     2.441    2.619   88.6   22.7   258   13.8 
2026-08-23 00:00 UT   03 51 20.3   +21 05 34     2.428    2.619   89.3   22.7   258   13.8 
2026-08-24 00:00 UT   03 52 14.8   +21 09 53     2.415    2.619   90.1   22.7   258   13.8 
2026-08-25 00:00 UT   03 53 08.3   +21 14 09     2.401    2.619   90.8   22.7   258   13.8 
2026-08-26 00:00 UT   03 54 00.8   +21 18 22     2.388    2.618   91.6   22.7   258   13.8 


    Terminology:
            
    delta:  distance between minor planet and earth in AU
    radius: distance between minor planet and sun in AU
    magn:   magnitude (brightness) estimate    
    ra:     right ascension in hours (24h = 360deg)
    dec:    declination in degrees
    elong:  elongation in degrees (angle sun-earth-minor planet)    
    phase:  phase angle in degrees (angle sun-minor planet-earth)        
    AU:     Astronomical Unit (mean distance between earth and sun: 149597870.7 km
    

Orbital elements provided by the MPC (Minor Planet Center).
Calculations by a modified version of AAPlus, a C# implementation of the AA+ project by PJ Naughter from the algorithms presented in the book "Astronomical Algorithms" by Jean Meeus.
NGC2000 dso catalog and star labels from VizieR as provided by the Strasbourg astronomical Data Center.
Tycho2 catalog from the ESO archive.